Time,TemperatureF,DewpointF,PressureIn,WindDirection,WindDirectionDegrees,WindSpeedMPH,WindSpeedGustMPH,Humidity,HourlyPrecipIn,Conditions,Clouds,dailyrainin,SoftwareType,DateUTC
2013-05-15 02:00:00,55.0,44.0,30.00,North,-999,0.0,0.0,66,0.00,,,0.00,,2013-05-15 06:00:00,
2013-05-15 02:22:00,55.0,44.0,30.00,North,-999,0.0,0.0,66,0.00,,,0.00,,2013-05-15 06:22:00,
2013-05-15 02:32:00,55.0,44.0,30.00,North,-999,0.0,0.0,66,0.00,,,0.00,,2013-05-15 06:32:00,
2013-05-15 02:42:00,55.0,44.0,30.00,North,-999,0.0,0.0,66,0.00,,,0.00,,2013-05-15 06:42:00,
2013-05-15 02:52:00,55.0,44.0,30.00,North,-999,0.0,0.0,66,0.00,,,0.00,,2013-05-15 06:52:00,
2013-05-15 03:30:00,53.0,43.0,29.98,North,-999,0.0,0.0,69,0.00,,,0.00,,2013-05-15 07:30:00,
2013-05-15 03:52:00,53.0,43.0,29.98,North,-999,0.0,0.0,69,0.00,,,0.00,,2013-05-15 07:52:00,
2013-05-15 04:02:00,53.0,43.0,29.98,North,-999,0.0,0.0,69,0.00,,,0.00,,2013-05-15 08:02:00,
2013-05-15 04:12:00,53.0,43.0,29.98,North,-999,0.0,0.0,69,0.00,,,0.00,,2013-05-15 08:12:00,
2013-05-15 04:21:00,53.0,43.0,29.98,North,-999,0.0,0.0,69,0.00,,,0.00,,2013-05-15 08:21:00,
2013-05-15 05:00:00,53.0,45.0,29.98,North,-999,0.0,0.0,73,0.00,,,0.00,,2013-05-15 09:00:00,
2013-05-15 05:22:00,53.0,45.0,29.98,North,-999,0.0,0.0,73,0.00,,,0.00,,2013-05-15 09:22:00,
2013-05-15 05:33:00,53.0,45.0,29.98,North,-999,0.0,0.0,73,0.00,,,0.00,,2013-05-15 09:33:00,
2013-05-15 05:42:00,53.0,45.0,29.98,North,-999,0.0,0.0,73,0.00,,,0.00,,2013-05-15 09:42:00,
2013-05-15 05:53:00,53.0,45.0,29.98,North,-999,0.0,0.0,73,0.00,,,0.00,,2013-05-15 09:53:00,
2013-05-15 06:30:00,52.0,45.0,29.99,SW,225,0.0,1.0,78,0.00,,,0.00,,2013-05-15 10:30:00,
2013-05-15 06:43:00,52.0,45.0,29.99,SW,225,0.0,1.0,78,0.00,,,0.00,,2013-05-15 10:43:00,
2013-05-15 06:53:00,52.0,45.0,29.99,SW,225,0.0,1.0,78,0.00,,,0.00,,2013-05-15 10:53:00,
2013-05-15 07:13:00,52.0,45.0,29.99,SW,225,0.0,1.0,78,0.00,,,0.00,,2013-05-15 11:13:00,
2013-05-15 07:19:00,52.0,45.0,29.99,SW,225,0.0,1.0,78,0.00,,,0.00,,2013-05-15 11:19:00,
2013-05-15 07:27:00,52.0,45.0,29.99,SW,225,0.0,1.0,78,0.00,,,0.00,,2013-05-15 11:27:00,
2013-05-15 08:00:00,57.0,48.0,29.99,South,180,0.0,2.0,72,0.00,,,0.00,,2013-05-15 12:00:00,
2013-05-15 08:17:00,57.0,48.0,29.99,South,180,0.0,2.0,72,0.00,,,0.00,,2013-05-15 12:17:00,
2013-05-15 08:30:00,57.0,48.0,29.99,South,180,0.0,2.0,72,0.00,,,0.00,,2013-05-15 12:30:00,
2013-05-15 08:38:00,57.0,48.0,29.99,South,180,0.0,2.0,72,0.00,,,0.00,,2013-05-15 12:38:00,
2013-05-15 08:49:00,57.0,48.0,29.99,South,180,0.0,2.0,72,0.00,,,0.00,,2013-05-15 12:49:00,
2013-05-15 08:57:00,57.0,48.0,29.99,South,180,0.0,2.0,72,0.00,,,0.00,,2013-05-15 12:57:00,
2013-05-15 11:29:00,68.0,56.0,29.98,SSE,157,0.0,3.0,66,0.00,,,0.00,,2013-05-15 15:29:00,
2013-05-15 12:02:00,70.0,59.0,29.98,West,270,0.0,1.0,67,0.00,,,0.00,,2013-05-15 16:02:00,
2013-05-15 12:10:00,70.0,59.0,29.98,West,270,0.0,1.0,67,0.00,,,0.00,,2013-05-15 16:10:00,
2013-05-15 12:24:00,70.0,59.0,29.98,West,270,0.0,1.0,67,0.00,,,0.00,,2013-05-15 16:24:00,
2013-05-15 13:29:00,81.0,59.0,29.94,SSE,157,1.0,5.0,48,0.00,,,0.00,,2013-05-15 17:29:00,
2013-05-15 13:30:00,84.0,58.0,29.93,SSE,157,1.0,5.0,42,0.00,,,0.00,,2013-05-15 17:30:00,
2013-05-15 13:38:00,81.0,59.0,29.94,SSE,157,1.0,5.0,48,0.00,,,0.00,,2013-05-15 17:38:00,
2013-05-15 13:49:00,81.0,59.0,29.94,SSE,157,1.0,5.0,48,0.00,,,0.00,,2013-05-15 17:49:00,
2013-05-15 13:59:00,84.0,58.0,29.93,SSE,157,1.0,5.0,42,0.00,,,0.00,,2013-05-15 17:59:00,
2013-05-15 14:07:00,84.0,58.0,29.93,SSE,157,1.0,5.0,42,0.00,,,0.00,,2013-05-15 18:07:00,
2013-05-15 14:16:00,84.0,58.0,29.93,SSE,157,1.0,5.0,42,0.00,,,0.00,,2013-05-15 18:16:00,
2013-05-15 14:27:00,84.0,58.0,29.93,SSE,157,1.0,5.0,42,0.00,,,0.00,,2013-05-15 18:27:00,
2013-05-15 19:30:00,83.0,61.0,29.82,South,180,0.0,3.0,48,0.00,,,0.00,,2013-05-15 23:30:00,
2013-05-15 19:40:00,83.0,61.0,29.82,South,180,0.0,3.0,48,0.00,,,0.00,,2013-05-15 23:40:00,
2013-05-15 19:50:00,83.0,61.0,29.82,South,180,0.0,3.0,48,0.00,,,0.00,,2013-05-15 23:50:00,
2013-05-15 20:52:00,76.0,62.0,29.83,SW,225,0.0,1.0,61,0.00,,,0.00,,2013-05-16 00:52:00,
2013-05-15 20:59:00,76.0,62.0,29.83,SW,225,0.0,1.0,61,0.00,,,0.00,,2013-05-16 00:59:00,
2013-05-15 21:00:00,74.0,62.0,29.83,SW,225,0.0,1.0,66,0.00,,,0.00,,2013-05-16 01:00:00,
2013-05-15 21:37:00,74.0,62.0,29.83,SW,225,0.0,1.0,66,0.00,,,0.00,,2013-05-16 01:37:00,
2013-05-15 21:49:00,74.0,62.0,29.83,SW,225,0.0,1.0,66,0.00,,,0.00,,2013-05-16 01:49:00,
2013-05-15 23:30:00,71.0,61.0,29.85,North,-999,0.0,0.0,70,0.00,,,0.00,,2013-05-16 03:30:00,
2013-05-15 23:58:00,71.0,61.0,29.85,North,-999,0.0,0.0,70,0.00,,,0.00,,2013-05-16 03:58:00,